Location: Charbonni�res
(45.9952°N, 2.9982°E)
Time: 13:36:54
(UTC+00:00)

USA 234 - Pass Details

Date: 29 November 2020
Orbit: 1098 x 1110 km, 123.0° (Epoch: 22 January)

Event Time Altitude Azimuth Distance (km) Brightness Sun altitude
Rises 05:49:46 0° 52° (NE) 3,940 6.7 -13.1°
Reaches altitude 10° 05:52:18 10° 56° (NE) 2,979 6.1 -12.7°
Maximum altitude 05:58:50 62° 137° (SE) 1,232 3.8 -11.6°
Drops below altitude 10° 06:05:19 10° 218° (SW) 2,963 5.4 -10.5°
Sets 06:07:49 0° 221° (SW) 3,917 5.9 -10.1°
